#timestamp,LO_Frequency,Hit,StdDev 
1629561615.9,286047001.8,N
1629561635.7,286047002.3,N
1629561655.6,286047004.3,N
1629561675.4,286047001.9,N
1629561695.2,286046999.7,N
1629561715.1,286047000.2,N
1629561716.0,286047000.2,N
1629561735.8,286047002.3,N
1629561755.7,286047000.8,N
1629561775.5,286046998.1,N
1629561795.3,286047001.2,N
1629561815.2,286047001.2,N
1629561835.9,286046998.3,N
1629561855.7,286046999.4,N
1629561875.6,286046998.5,N
1629561895.4,286046999.1,N
1629561915.3,286046998.9,N
1629561935.1,286046999.5,N
1629561936.0,286046999.5,N
1629561955.8,286046996.5,N
1629561975.7,286046996.8,N
1629561995.5,286046997.5,N
1629562015.3,286046998.0,N
1629562035.2,286046998.0,N
1629562055.0,286046994.9,N
1629562055.9,286046994.9,N
1629562075.8,286046995.3,N
1629562095.6,286046995.3,N
1629562115.4,286046995.4,N
1629562135.3,286046995.6,N
1629562155.1,286046996.1,N
1629562175.9,286046993.9,N
1629562195.7,286046993.9,N
1629562215.5,286046993.7,N
1629562235.4,286046993.5,N
1629562255.2,286046994.1,N
1629562275.0,286046996.1,N
1629562275.9,286046996.1,N
1629562295.8,286046993.4,N
1629562315.6,286046996.2,N
1629562335.5,286046996.2,N
1629562355.3,286046994.9,N
1629562375.1,286046995.3,N
1629562395.9,286046994.9,N
1629562415.7,286046997.9,N
1629562435.5,286046997.5,N
1629562455.4,286046999.4,N
1629562475.2,286046999.6,N
1629562495.1,286046999.6,N
1629562496.0,286046999.6,N
1629562515.8,286046997.5,N
1629562535.6,286046995.7,N
1629562555.5,286046997.6,N
1629562575.3,286046995.0,N
1629562595.2,286046995.7,N
1629562615.9,286046993.6,Y
1629562635.7,286046999.6,P
1629562655.6,286046996.7,N
1629562675.4,286046998.9,N
1629562695.2,286047000.0,N
1629562715.1,286047000.9,N
1629562716.0,286047000.9,N
1629562735.8,286047000.8,N
1629562755.7,286046998.5,N
1629562775.5,286046999.1,N
1629562795.3,286046997.0,N
1629562815.2,286046999.6,N
1629562835.0,286046998.7,N
1629562835.9,286046998.7,N
1629562855.7,286047000.7,N
1629562875.6,286046999.9,N
1629562895.4,286047001.2,N
1629562915.3,286046997.1,N
1629562935.1,286046999.2,N
1629562936.0,286046999.2,N
1629562955.8,286046998.6,N
1629562975.7,286046998.8,N
1629562995.5,286047001.2,N
1629563015.3,286046999.2,N
1629563035.2,286046997.0,N
1629563055.0,286047001.0,N
1629563055.9,286047001.0,N
1629563075.8,286046998.6,N
1629563095.6,286046999.2,N
1629563115.4,286047001.2,N
1629563135.3,286046998.7,N
1629563155.1,286046999.4,N
1629563175.9,286046998.7,N
1629563195.7,286046998.4,N
1629563215.5,286046997.3,N
1629563235.4,286046996.5,N
1629563255.2,286046997.0,N
1629563275.0,286046994.9,Y
1629563275.9,286046994.9,P
1629563295.8,286046999.6,N
1629563315.6,286046996.6,N
1629563335.5,286046999.4,N
1629563355.3,286046999.3,N
1629563375.1,286046999.1,N
1629563395.9,286046999.5,N
1629563445.7,286047000.8,E
1629563455.7,286046999.3,N
1629563475.5,286046999.3,P
1629563495.3,286047000.7,P
1629563515.2,286046996.7,Y
1629563535.0,286046999.4,P
1629563535.9,286046999.4,P
1629563555.8,286046997.4,P
1629563575.6,286046997.3,N
1629563595.4,286046995.3,Y
1629563615.3,286046998.3,P
1629563635.1,286046996.5,P
1629563655.8,286046997.2,P
1629563675.7,286046999.2,N
1629563695.5,286046998.7,N
1629563715.4,286046999.3,N
1629563735.2,286046998.6,N
1629563755.0,286047000.4,N
1629563755.9,286047000.4,N
1629563775.8,286047000.4,N
1629563795.6,286047002.8,N
1629563815.4,286046998.3,N
1629563835.3,286046999.4,N
1629563855.1,286046998.2,N
1629563875.8,286046998.4,N
1629563895.7,286046999.1,N
1629563915.5,286046999.0,N
1629563935.4,286046998.4,N
1629563955.2,286046998.9,N
1629563975.0,286046999.1,N
1629563975.9,286046999.1,N
1629563995.8,286046996.5,N
1629564015.6,286046997.4,N
1629564035.4,286046997.0,N
1629564055.3,286046999.1,N
1629564075.1,286046998.2,N
1629564095.9,286046998.3,N
1629564115.7,286046998.4,N
1629564135.5,286046998.8,N
1629564155.4,286046999.0,N
1629564175.2,286046998.9,N
1629564195.1,286046996.5,N
1629564196.0,286046996.5,N
1629564215.8,286046997.4,N
1629564235.6,286046999.5,N
1629564255.5,286047001.1,N
1629564275.3,286046999.7,N
1629564295.1,286047000.9,N
1629564315.9,286047002.3,N
1629564335.7,286047001.4,N
1629564355.6,286047002.5,N
1629564375.4,286047002.8,N
1629564395.2,286047000.1,N
1629564415.1,286047000.2,N
1629564416.0,286047000.2,N
1629564435.8,286047000.1,N
1629564455.6,286047000.1,N
1629564475.5,286047000.9,N
1629564495.3,286047000.0,N
1629564515.2,286047002.6,N
1629564535.0,286047002.0,N
1629564535.9,286047002.0,N
1629564555.7,286047002.5,N
1629564575.6,286047001.9,N
1629564595.4,286046999.7,N
1629564615.3,286047002.5,N
1629564635.1,286047000.2,N
1629564636.0,286047000.2,N
1629564655.8,286047002.8,N
1629564675.7,286047002.6,N
1629564695.5,286047001.5,N
1629564715.3,286047002.2,N
1629564735.2,286047002.0,N
1629564755.0,286047000.2,N
1629564755.9,286047000.2,N
1629564775.8,286047000.5,N
1629564795.6,286047002.8,N
1629564815.4,286047002.7,N
1629564835.3,286047000.1,N
1629564855.1,286047000.9,N
1629564875.9,286047000.6,N
1629564895.7,286047000.8,N
1629564915.5,286046998.1,N
1629564935.4,286047001.1,N
1629564955.2,286046999.7,N
1629564975.0,286047002.2,N
1629564976.0,286047002.2,N
1629564995.8,286047001.6,N
1629565015.6,286047002.4,N
1629565035.5,286047000.1,N
1629565055.3,286047000.5,N
1629565075.1,286046998.3,N
1629565095.9,286046999.4,N
1629565115.7,286046997.2,N
1629565135.5,286046997.6,N
1629565155.4,286046996.9,N
1629565175.2,286046998.9,N
1629565195.1,286046999.1,N
1629565196.0,286046999.1,N
